| time (UTC) | temp F | wind direction | speed MPH | gust MPH | rain 1hr in | rain 24hr in | rain mn in | humidity % | barometer mb |
| 20260904171003 | 59 | 316 | 0.0 | 3.0 | 0.00 | 0.22 | 0.08 | 20 | 996.3 |
| 20260904170503 | 59 | 316 | 0.0 | 3.0 | 0.00 | 0.22 | 0.08 | 22 | 996.3 |
| 20260904170003 | 59 | 0 | 0.0 | 0.0 | 0.00 | 0.22 | 0.08 | 21 | 996.3 |
| 20260904165503 | 60 | 295 | 0.0 | 1.0 | 0.00 | 0.22 | 0.08 | 22 | 996.2 |
| 20260904165024 | 60 | 299 | 0.0 | 1.0 | 0.00 | 0.22 | 0.08 | 27 | 996.2 |
| 20260904164503 | 60 | 314 | 0.0 | 1.0 | 0.00 | 0.22 | 0.08 | 29 | 996.2 |
| 20260904164024 | 60 | 310 | 0.0 | 1.0 | 0.00 | 0.22 | 0.08 | 30 | 996.2 |
| 20260904163503 | 60 | 0 | 0.0 | 0.0 | 0.00 | 0.22 | 0.08 | 33 | 996.1 |
| 20260904163002 | 60 | 155 | 0.0 | 1.0 | 0.00 | 0.22 | 0.08 | 37 | 996.2 |
| 20260904162502 | 61 | 321 | 0.0 | 4.0 | 0.00 | 0.22 | 0.08 | 42 | 996.2 |
| 20260904162024 | 61 | 321 | 1.0 | 4.0 | 0.00 | 0.22 | 0.08 | 47 | 996.3 |
| 20260904161503 | 61 | 309 | 0.0 | 3.0 | 0.00 | 0.22 | 0.08 | 51 | 996.3 |
| 20260904161002 | 62 | 300 | 0.0 | 3.0 | 0.00 | 0.23 | 0.08 | 50 | 996.3 |
| 20260904160503 | 62 | 307 | 1.0 | 4.0 | 0.00 | 0.23 | 0.08 | 52 | 996.3 |
| 20260904160003 | 62 | 309 | 1.0 | 4.0 | 0.00 | 0.23 | 0.08 | 49 | 996.3 |
| 20260904155503 | 62 | 315 | 1.0 | 4.0 | 0.00 | 0.23 | 0.08 | 50 | 996.3 |
| 20260904155003 | 62 | 315 | 1.0 | 4.0 | 0.00 | 0.23 | 0.08 | 52 | 996.4 |
| 20260904154503 | 62 | 309 | 0.0 | 3.0 | 0.00 | 0.23 | 0.08 | 54 | 996.4 |
| 20260904154003 | 62 | 303 | 0.0 | 2.0 | 0.00 | 0.23 | 0.08 | 51 | 996.4 |
| 20260904153524 | 62 | 300 | 0.0 | 4.0 | 0.00 | 0.23 | 0.08 | 49 | 996.4 |
| 20260904153004 | 62 | 305 | 0.0 | 4.0 | 0.00 | 0.23 | 0.08 | 53 | 996.4 |
| 20260904152503 | 62 | 320 | 0.0 | 3.0 | 0.00 | 0.23 | 0.08 | 51 | 996.4 |
| 20260904152024 | 62 | 313 | 1.0 | 3.0 | 0.00 | 0.23 | 0.08 | 56 | 996.5 |
| 20260904151502 | 62 | 302 | 1.0 | 3.0 | 0.00 | 0.23 | 0.08 | 57 | 996.5 |
| 20260904151003 | 63 | 318 | 0.0 | 3.0 | 0.00 | 0.23 | 0.08 | 51 | 996.6 |
| 20260904150503 | 62 | 310 | 0.0 | 3.0 | 0.00 | 0.23 | 0.08 | 42 | 996.6 |
| 20260904150024 | 62 | 301 | 1.0 | 5.0 | 0.00 | 0.23 | 0.08 | 39 | 996.6 |
| 20260904145524 | 63 | 301 | 1.0 | 5.0 | 0.00 | 0.23 | 0.08 | 41 | 996.6 |
| 20260904145024 | 63 | 299 | 0.0 | 3.0 | 0.00 | 0.23 | 0.08 | 48 | 996.6 |
| 20260904144503 | 63 | 300 | 0.0 | 3.0 | 0.00 | 0.23 | 0.08 | 43 | 996.5 |
| 20260904144003 | 62 | 145 | 0.0 | 1.0 | 0.00 | 0.23 | 0.08 | 36 | 996.5 |
| 20260904143503 | 62 | 285 | 0.0 | 1.0 | 0.00 | 0.23 | 0.08 | 33 | 996.5 |
| 20260904143003 | 62 | 285 | 0.0 | 1.0 | 0.00 | 0.23 | 0.08 | 41 | 996.5 |
| 20260904142503 | 62 | 348 | 0.0 | 1.0 | 0.00 | 0.23 | 0.08 | 42 | 996.6 |
| 20260904142023 | 62 | 326 | 0.0 | 7.0 | 0.00 | 0.23 | 0.08 | 43 | 996.7 |
| 20260904141524 | 62 | 318 | 1.0 | 7.0 | 0.00 | 0.23 | 0.08 | 49 | 996.7 |
| 20260904141003 | 63 | 312 | 0.0 | 6.0 | 0.00 | 0.23 | 0.08 | 48 | 996.8 |
| 20260904140524 | 63 | 312 | 0.0 | 5.0 | 0.00 | 0.23 | 0.08 | 50 | 996.9 |
| 20260904140003 | 63 | 269 | 0.0 | 3.0 | 0.00 | 0.23 | 0.08 | 52 | 996.8 |
| 20260904135503 | 63 | 301 | 0.0 | 5.0 | 0.00 | 0.23 | 0.08 | 53 | 996.9 |
| 20260904135003 | 63 | 312 | 1.0 | 5.0 | 0.00 | 0.23 | 0.08 | 52 | 997.0 |
| 20260904134503 | 63 | 311 | 1.0 | 6.0 | 0.00 | 0.23 | 0.08 | 48 | 997.1 |
| 20260904134024 | 64 | 306 | 0.0 | 6.0 | 0.00 | 0.23 | 0.08 | 55 | 997.0 |
| 20260904133524 | 64 | 283 | 0.0 | 2.0 | 0.00 | 0.23 | 0.08 | 49 | 997.0 |
| 20260904133003 | 64 | 290 | 0.0 | 2.0 | 0.00 | 0.23 | 0.08 | 48 | 997.1 |
| 20260904132503 | 64 | 282 | 0.0 | 2.0 | 0.00 | 0.23 | 0.08 | 50 | 997.0 |
| 20260904132002 | 64 | 293 | 0.0 | 2.0 | 0.00 | 0.23 | 0.08 | 49 | 997.1 |
| 20260904131502 | 64 | 301 | 0.0 | 1.0 | 0.00 | 0.23 | 0.08 | 53 | 997.2 |
| 20260904131024 | 64 | 331 | 0.0 | 1.0 | 0.00 | 0.23 | 0.08 | 52 | 997.2 |
| 20260904130503 | 64 | 310 | 0.0 | 1.0 | 0.00 | 0.23 | 0.08 | 50 | 997.3 |
| 20260904130003 | 64 | 299 | 0.0 | 3.0 | 0.00 | 0.23 | 0.08 | 47 | 997.3 |
| 20260904125503 | 63 | 304 | 0.0 | 3.0 | 0.00 | 0.23 | 0.08 | 50 | 997.3 |
| 20260904125003 | 63 | 60 | 0.0 | 2.0 | 0.00 | 0.23 | 0.08 | 51 | 997.3 |
| 20260904124503 | 63 | 257 | 0.0 | 1.0 | 0.00 | 0.23 | 0.08 | 40 | 997.4 |
| 20260904124003 | 62 | 306 | 0.0 | 4.0 | 0.00 | 0.23 | 0.08 | 41 | 997.4 |
| 20260904123503 | 62 | 309 | 0.0 | 4.0 | 0.00 | 0.23 | 0.08 | 46 | 997.4 |
| 20260904123003 | 63 | 302 | 0.0 | 3.0 | 0.00 | 0.23 | 0.08 | 48 | 997.5 |
| 20260904122503 | 64 | 279 | 0.0 | 1.0 | 0.00 | 0.23 | 0.08 | 48 | 997.5 |
| 20260904122002 | 64 | 314 | 0.0 | 1.0 | 0.00 | 0.23 | 0.08 | 48 | 997.6 |
| 20260904121503 | 64 | 311 | 0.0 | 2.0 | 0.00 | 0.23 | 0.08 | 43 | 997.5 |
| 20260904121003 | 63 | 292 | 0.0 | 2.0 | 0.00 | 0.23 | 0.08 | 42 | 997.6 |
| 20260904120524 | 63 | 272 | 0.0 | 2.0 | 0.00 | 0.23 | 0.08 | 46 | 997.6 |
| 20260904120003 | 63 | 299 | 0.0 | 4.0 | 0.00 | 0.23 | 0.08 | 50 | 997.6 |
| 20260904115503 | 64 | 305 | 0.0 | 4.0 | 0.00 | 0.23 | 0.08 | 53 | 997.7 |
| 20260904115003 | 64 | 308 | 0.0 | 3.0 | 0.00 | 0.23 | 0.08 | 47 | 997.9 |
| 20260904114503 | 63 | 326 | 0.0 | 1.0 | 0.00 | 0.23 | 0.08 | 42 | 997.9 |
| 20260904114003 | 63 | 327 | 0.0 | 1.0 | 0.00 | 0.23 | 0.08 | 41 | 998.0 |
| 20260904113503 | 62 | 301 | 0.0 | 1.0 | 0.00 | 0.23 | 0.08 | 39 | 998.0 |
| 20260904113003 | 62 | 233 | 0.0 | 1.0 | 0.00 | 0.23 | 0.08 | 39 | 997.9 |
| 20260904112503 | 62 | 237 | 0.0 | 1.0 | 0.00 | 0.23 | 0.08 | 39 | 997.9 |
| 20260904112024 | 62 | 237 | 0.0 | 1.0 | 0.00 | 0.23 | 0.08 | 38 | 998.0 |
| 20260904111503 | 62 | 313 | 0.0 | 4.0 | 0.00 | 0.23 | 0.08 | 37 | 998.1 |
| 20260904111024 | 62 | 303 | 0.0 | 4.0 | 0.00 | 0.23 | 0.08 | 39 | 998.0 |
| 20260904110503 | 62 | 258 | 0.0 | 2.0 | 0.00 | 0.23 | 0.08 | 38 | 998.0 |
| 20260904110024 | 62 | 352 | 0.0 | 2.0 | 0.00 | 0.23 | 0.08 | 38 | 997.9 |
| 20260904105503 | 62 | 298 | 0.0 | 2.0 | 0.00 | 0.23 | 0.08 | 43 | 997.9 |
| 20260904105024 | 62 | 298 | 1.0 | 5.0 | 0.00 | 0.23 | 0.08 | 45 | 998.0 |
| 20260904104524 | 62 | 293 | 1.0 | 5.0 | 0.00 | 0.23 | 0.08 | 46 | 998.1 |
| 20260904104003 | 62 | 280 | 1.0 | 4.0 | 0.00 | 0.23 | 0.08 | 46 | 998.1 |
| 20260904103503 | 62 | 323 | 0.0 | 3.0 | 0.00 | 0.23 | 0.08 | 42 | 998.1 |
| 20260904103003 | 62 | 320 | 0.0 | 1.0 | 0.00 | 0.23 | 0.08 | 43 | 998.2 |
| 20260904102503 | 62 | 318 | 0.0 | 6.0 | 0.00 | 0.23 | 0.08 | 40 | 998.2 |
| 20260904102002 | 62 | 317 | 0.0 | 6.0 | 0.00 | 0.23 | 0.08 | 44 | 998.3 |
| 20260904101524 | 62 | 274 | 0.0 | 1.0 | 0.00 | 0.23 | 0.08 | 37 | 998.3 |
| 20260904101003 | 62 | 282 | 0.0 | 1.0 | 0.00 | 0.23 | 0.08 | 37 | 998.4 |
| 20260904100502 | 62 | 294 | 0.0 | 2.0 | 0.00 | 0.23 | 0.08 | 37 | 998.4 |
| 20260904100003 | 62 | 324 | 0.0 | 2.0 | 0.00 | 0.23 | 0.08 | 33 | 998.5 |
| 20260904095503 | 62 | 281 | 0.0 | 3.0 | 0.00 | 0.23 | 0.08 | 33 | 998.6 |
| 20260904095024 | 62 | 261 | 0.0 | 3.0 | 0.00 | 0.23 | 0.08 | 36 | 998.5 |
| 20260904094503 | 62 | 131 | 0.0 | 3.0 | 0.00 | 0.23 | 0.08 | 36 | 998.6 |
| 20260904094024 | 62 | 123 | 0.0 | 2.0 | 0.00 | 0.23 | 0.08 | 36 | 998.5 |
| 20260904093524 | 62 | 303 | 0.0 | 3.0 | 0.00 | 0.23 | 0.08 | 33 | 998.7 |
| 20260904093024 | 62 | 299 | 0.0 | 3.0 | 0.00 | 0.23 | 0.08 | 34 | 998.8 |
| 20260904092503 | 62 | 251 | 0.0 | 5.0 | 0.00 | 0.23 | 0.08 | 38 | 998.7 |
| 20260904092003 | 62 | 176 | 0.0 | 5.0 | 0.00 | 0.23 | 0.08 | 39 | 998.8 |
| 20260904091503 | 62 | 269 | 0.0 | 3.0 | 0.00 | 0.23 | 0.08 | 37 | 998.9 |
| 20260904091024 | 62 | 285 | 0.0 | 4.0 | 0.00 | 0.23 | 0.08 | 38 | 998.9 |
| 20260904090503 | 62 | 312 | 0.0 | 4.0 | 0.00 | 0.23 | 0.08 | 37 | 999.0 |
| 20260904090024 | 62 | 306 | 0.0 | 3.0 | 0.00 | 0.23 | 0.08 | 38 | 999.0 |
| 20260904085503 | 62 | 295 | 0.0 | 4.0 | 0.00 | 0.23 | 0.08 | 34 | 999.0 |
| 20260904085003 | 62 | 303 | 0.0 | 4.0 | 0.00 | 0.23 | 0.08 | 28 | 999.0 |
| 20260904084503 | 61 | 194 | 0.0 | 3.0 | 0.00 | 0.23 | 0.08 | 26 | 999.0 |
| 20260904084003 | 61 | 204 | 0.0 | 3.0 | 0.00 | 0.23 | 0.08 | 27 | 999.0 |
| 20260904083503 | 61 | 283 | 0.0 | 3.0 | 0.00 | 0.23 | 0.08 | 29 | 999.0 |
| 20260904083003 | 61 | 296 | 0.0 | 3.0 | 0.00 | 0.23 | 0.08 | 30 | 999.0 |
| 20260904082503 | 61 | 259 | 0.0 | 1.0 | 0.00 | 0.23 | 0.08 | 34 | 999.0 |
| 20260904082002 | 61 | 292 | 0.0 | 9.0 | 0.00 | 0.23 | 0.08 | 40 | 999.0 |
| 20260904081503 | 61 | 302 | 1.0 | 9.0 | 0.00 | 0.23 | 0.08 | 44 | 999.1 |
| 20260904081002 | 61 | 304 | 0.0 | 5.0 | 0.00 | 0.23 | 0.08 | 44 | 999.1 |
| 20260904080503 | 61 | 309 | 0.0 | 5.0 | 0.00 | 0.23 | 0.08 | 45 | 999.0 |
| 20260904080002 | 61 | 319 | 0.0 | 5.0 | 0.00 | 0.23 | 0.08 | 47 | 999.1 |
| 20260904075503 | 61 | 11 | 0.0 | 5.0 | 0.00 | 0.23 | 0.08 | 41 | 999.1 |
| 20260904075024 | 61 | 323 | 0.0 | 8.0 | 0.00 | 0.23 | 0.08 | 44 | 999.0 |
| 20260904074503 | 61 | 300 | 0.0 | 8.0 | 0.00 | 0.23 | 0.08 | 48 | 999.2 |
| 20260904074003 | 61 | 294 | 0.0 | 5.0 | 0.00 | 0.23 | 0.08 | 46 | 999.2 |
| 20260904073503 | 61 | 313 | 1.0 | 6.0 | 0.00 | 0.23 | 0.08 | 50 | 999.4 |
| 20260904073003 | 61 | 316 | 1.0 | 6.0 | 0.00 | 0.23 | 0.08 | 49 | 999.4 |
| 20260904072524 | 61 | 290 | 0.0 | 6.0 | 0.00 | 0.23 | 0.08 | 43 | 999.3 |
| 20260904072002 | 61 | 304 | 0.0 | 8.0 | 0.00 | 0.23 | 0.08 | 43 | 999.3 |
| 20260904071503 | 61 | 311 | 1.0 | 8.0 | 0.00 | 0.23 | 0.08 | 42 | 999.5 |
| 20260904071024 | 61 | 304 | 0.0 | 7.0 | 0.00 | 0.23 | 0.08 | 42 | 999.4 |
| 20260904070503 | 61 | 306 | 0.0 | 7.0 | 0.00 | 0.23 | 0.08 | 36 | 999.3 |
| 20260904070003 | 60 | 309 | 0.0 | 3.0 | 0.00 | 0.23 | 0.08 | 25 | 999.4 |
| 20260904065503 | 59 | 304 | 1.0 | 3.0 | 0.00 | 0.23 | 0.08 | 24 | 999.4 |
| 20260904065003 | 59 | 309 | 0.0 | 3.0 | 0.00 | 0.23 | 0.08 | 25 | 999.4 |
| 20260904064503 | 59 | 300 | 1.0 | 5.0 | 0.00 | 0.23 | 0.08 | 26 | 999.4 |
| 20260904064003 | 59 | 315 | 1.0 | 6.0 | 0.00 | 0.23 | 0.08 | 31 | 999.4 |
| 20260904063503 | 59 | 330 | 1.0 | 6.0 | 0.00 | 0.23 | 0.08 | 26 | 999.4 |
| 20260904063024 | 59 | 325 | 0.0 | 4.0 | 0.00 | 0.23 | 0.08 | 23 | 999.6 |
| 20260904062503 | 59 | 314 | 1.0 | 4.0 | 0.00 | 0.23 | 0.08 | 24 | 999.6 |
| 20260904062002 | 59 | 312 | 0.0 | 4.0 | 0.00 | 0.23 | 0.08 | 20 | 999.6 |
| 20260904061503 | 59 | 143 | 0.0 | 2.0 | 0.00 | 0.23 | 0.08 | 19 | 999.8 |
| 20260904061024 | 59 | 178 | 0.0 | 2.0 | 0.00 | 0.23 | 0.08 | 19 | 999.7 |
| 20260904060503 | 59 | 282 | 0.0 | 4.0 | 0.00 | 0.23 | 0.08 | 19 | 999.7 |
| 20260904060003 | 59 | 284 | 0.0 | 4.0 | 0.00 | 0.23 | 0.08 | 22 | 999.7 |
| 20260904055503 | 59 | 320 | 1.0 | 6.0 | 0.00 | 0.23 | 0.08 | 21 | 999.7 |
| 20260904055003 | 59 | 321 | 1.0 | 7.0 | 0.00 | 0.23 | 0.08 | 24 | 999.8 |
| 20260904054503 | 59 | 318 | 1.0 | 7.0 | 0.00 | 0.23 | 0.08 | 19 | 999.9 |
| 20260904054003 | 58 | 283 | 0.0 | 5.0 | 0.00 | 0.23 | 0.08 | 14 | 999.9 |
| 20260904053503 | 59 | 278 | 1.0 | 7.0 | 0.00 | 0.23 | 0.08 | 17 | 999.9 |
| 20260904053003 | 59 | 283 | 1.0 | 7.0 | 0.00 | 0.23 | 0.08 | 18 | 999.9 |
| 20260904052503 | 58 | 301 | 0.0 | 7.0 | 0.00 | 0.23 | 0.08 | 19 | 1000.0 |
| 20260904052023 | 59 | 0 | 0.0 | 4.0 | 0.00 | 0.23 | 0.08 | 3 | 999.8 |
| 20260904051503 | 59 | 0 | 0.0 | 4.0 | 0.00 | 0.23 | 0.08 | 3 | 999.9 |
| 20260904051002 | 59 | 0 | 0.0 | 4.0 | 0.00 | 0.23 | 0.08 | 3 | 1000.0 |
| 20260904050502 | 59 | 0 | 0.0 | 4.0 | 0.00 | 0.23 | 0.08 | 3 | 1000.0 |
| 20260904050003 | 59 | 0 | 0.0 | 4.0 | 0.00 | 0.23 | 0.08 | 3 | 999.9 |
| 20260904045502 | 59 | 0 | 0.0 | 4.0 | 0.00 | 0.23 | 0.08 | 3 | 999.9 |
| 20260904045003 | 59 | 0 | 0.0 | 4.0 | 0.00 | 0.23 | 0.08 | 3 | 999.9 |
| 20260904044503 | 59 | 0 | 0.0 | 4.0 | 0.00 | 0.23 | 0.08 | 3 | 1000.0 |
| 20260904044003 | 59 | 0 | 0.0 | 4.0 | 0.00 | 0.23 | 0.08 | 3 | 1000.0 |
| 20260904043503 | 59 | 0 | 0.0 | 4.0 | 0.00 | 0.23 | 0.08 | 3 | 1000.1 |
| 20260904043024 | 59 | 0 | 0.0 | 4.0 | 0.00 | 0.23 | 0.08 | 3 | 999.9 |
| 20260904042503 | 59 | 0 | 0.0 | 4.0 | 0.00 | 0.23 | 0.08 | 3 | 1000.0 |
| 20260904042003 | 59 | 0 | 0.0 | 4.0 | 0.00 | 0.23 | 0.08 | 3 | 999.9 |
| 20260904041503 | 59 | 0 | 0.0 | 4.0 | 0.00 | 0.23 | 0.08 | 3 | 1000.0 |
| 20260904041003 | 59 | 198 | 0.0 | 4.0 | 0.00 | 0.23 | 0.08 | 3 | 1000.1 |
| 20260904040503 | 59 | 175 | 0.0 | 6.0 | 0.00 | 0.23 | 0.08 | 3 | 1000.1 |
| 20260904040003 | 57 | 169 | 0.0 | 6.0 | 0.00 | 0.23 | 0.08 | 3 | 1000.2 |
| 20260904035503 | 58 | 312 | 1.0 | 6.0 | 0.00 | 0.23 | 0.08 | 5 | 1000.2 |
| 20260904035003 | 58 | 310 | 1.0 | 6.0 | 0.00 | 0.23 | 0.08 | 4 | 1000.1 |
| 20260904034503 | 57 | 307 | 0.0 | 4.0 | 0.00 | 0.23 | 0.08 | 1 | 1000.1 |
| 20260904034024 | 57 | 264 | 0.0 | 4.0 | 0.00 | 0.23 | 0.08 | 1 | 1000.1 |
| 20260904033524 | 57 | 267 | 0.0 | 4.0 | 0.00 | 0.23 | 0.08 | 1 | 1000.1 |
| 20260904033003 | 57 | 282 | 0.0 | 7.0 | 0.00 | 0.23 | 0.08 | 1 | 1000.2 |
| 20260904032503 | 57 | 311 | 1.0 | 7.0 | 0.00 | 0.23 | 0.08 | 1 | 1000.2 |
| 20260904032003 | 57 | 319 | 1.0 | 4.0 | 0.00 | 0.23 | 0.08 | 1 | 1000.2 |
| 20260904031503 | 57 | 324 | 1.0 | 4.0 | 0.00 | 0.23 | 0.08 | 1 | 1000.5 |
| 20260904031002 | 57 | 312 | 1.0 | 6.0 | 0.00 | 0.23 | 0.08 | 1 | 1000.4 |
| 20260904030523 | 57 | 315 | 1.0 | 9.0 | 0.00 | 0.23 | 0.08 | 1 | 1000.5 |
| 20260904030024 | 57 | 352 | 0.0 | 9.0 | 0.00 | 0.23 | 0.08 | 1 | 1000.5 |
| 20260904025503 | 57 | 251 | 0.0 | 3.0 | 0.00 | 0.23 | 0.08 | 1 | 1000.4 |
| 20260904025003 | 57 | 288 | 0.0 | 3.0 | 0.00 | 0.23 | 0.08 | 1 | 1000.5 |
| 20260904024503 | 57 | 282 | 0.0 | 3.0 | 0.00 | 0.23 | 0.08 | 1 | 1000.5 |
| 20260904024003 | 57 | 299 | 0.0 | 4.0 | 0.00 | 0.23 | 0.08 | 1 | 1000.5 |
| 20260904023503 | 57 | 294 | 1.0 | 5.0 | 0.00 | 0.23 | 0.08 | 1 | 1000.5 |
| 20260904023024 | 57 | 292 | 1.0 | 8.0 | 0.00 | 0.23 | 0.08 | 1 | 1000.5 |
| 20260904022524 | 56 | 244 | 0.0 | 8.0 | 0.00 | 0.23 | 0.08 | 1 | 1000.6 |
| 20260904022003 | 56 | 302 | 1.0 | 6.0 | 0.00 | 0.23 | 0.08 | 1 | 1000.6 |
| 20260904021502 | 56 | 317 | 1.0 | 6.0 | 0.00 | 0.23 | 0.08 | 1 | 1000.7 |
| 20260904021002 | 56 | 331 | 0.0 | 4.0 | 0.00 | 0.23 | 0.08 | 1 | 1000.8 |
| 20260904020503 | 56 | 10 | 0.0 | 3.0 | 0.00 | 0.23 | 0.08 | 1 | 1000.7 |
| 20260904020003 | 56 | 334 | 0.0 | 3.0 | 0.00 | 0.23 | 0.08 | 1 | 1000.8 |
| 20260904015524 | 56 | 229 | 0.0 | 1.0 | 0.00 | 0.23 | 0.08 | 1 | 1000.7 |
| 20260904015003 | 57 | 295 | 0.0 | 5.0 | 0.00 | 0.23 | 0.08 | 1 | 1000.8 |
| 20260904014503 | 56 | 280 | 0.0 | 5.0 | 0.00 | 0.23 | 0.08 | 1 | 1000.7 |
| 20260904014003 | 56 | 144 | 0.0 | 4.0 | 0.00 | 0.23 | 0.08 | 1 | 1000.7 |
| 20260904013524 | 56 | 152 | 0.0 | 2.0 | 0.00 | 0.23 | 0.08 | 1 | 1000.9 |
| 20260904013003 | 56 | 314 | 0.0 | 9.0 | 0.00 | 0.23 | 0.08 | 1 | 1000.9 |
| 20260904012503 | 56 | 313 | 0.0 | 9.0 | 0.00 | 0.23 | 0.08 | 1 | 1000.9 |
| 20260904012003 | 56 | 180 | 0.0 | 2.0 | 0.00 | 0.23 | 0.08 | 1 | 1001.0 |
| 20260904011524 | 56 | 243 | 0.0 | 3.0 | 0.00 | 0.23 | 0.08 | 1 | 1001.0 |
| 20260904011024 | 56 | 244 | 0.0 | 7.0 | 0.00 | 0.23 | 0.08 | 1 | 1000.9 |
| 20260904010503 | 56 | 257 | 0.0 | 7.0 | 0.00 | 0.23 | 0.08 | 1 | 1000.9 |
| 20260904010003 | 56 | 281 | 1.0 | 7.0 | 0.00 | 0.23 | 0.08 | 1 | 1000.8 |
| 20260904005503 | 56 | 180 | 1.0 | 7.0 | 0.00 | 0.23 | 0.08 | 1 | 1001.0 |
| 20260904005002 | 57 | 120 | 1.0 | 4.0 | 0.00 | 0.23 | 0.08 | 1 | 1001.1 |
| 20260904004503 | 57 | 309 | 0.0 | 4.0 | 0.00 | 0.23 | 0.08 | 1 | 1001.4 |
| 20260904004003 | 57 | 306 | 0.0 | 3.0 | 0.00 | 0.23 | 0.08 | 1 | 1001.4 |
| 20260904003524 | 57 | 129 | 0.0 | 3.0 | 0.00 | 0.23 | 0.08 | 1 | 1001.5 |
| 20260904003003 | 57 | 142 | 0.0 | 3.0 | 0.00 | 0.23 | 0.08 | 1 | 1001.5 |
| 20260904002503 | 57 | 278 | 0.0 | 1.0 | 0.00 | 0.23 | 0.08 | 1 | 1001.8 |
| 20260904002003 | 57 | 289 | 0.0 | 5.0 | 0.00 | 0.23 | 0.08 | 1 | 1001.8 |
| 20260904001503 | 57 | 290 | 0.0 | 6.0 | 0.00 | 0.23 | 0.08 | 1 | 1001.7 |
| 20260904001003 | 57 | 309 | 1.0 | 9.0 | 0.00 | 0.23 | 0.08 | 1 | 1001.7 |
| 20260904000502 | 57 | 310 | 1.0 | 9.0 | 0.00 | 0.23 | 0.08 | 1 | 1001.7 |
| 20260904000003 | 57 | 275 | 1.0 | 4.0 | 0.00 | 0.23 | 0.08 | 1 | 1001.6 |
| 20260903235503 | 57 | 306 | 1.0 | 4.0 | 0.00 | 0.23 | 0.08 | 1 | 1001.6 |
| 20260903235003 | 57 | 320 | 1.0 | 4.0 | 0.00 | 0.23 | 0.08 | 1 | 1001.5 |
| 20260903234503 | 57 | 318 | 0.0 | 2.0 | 0.01 | 0.23 | 0.08 | 1 | 1001.6 |
| 20260903234024 | 57 | 310 | 0.0 | 7.0 | 0.01 | 0.23 | 0.08 | 1 | 1001.6 |
| 20260903233503 | 57 | 301 | 0.0 | 7.0 | 0.01 | 0.23 | 0.08 | 1 | 1001.7 |
| 20260903233024 | 57 | 301 | 0.0 | 4.0 | 0.01 | 0.23 | 0.08 | 1 | 1001.6 |
| 20260903232503 | 57 | 295 | 0.0 | 4.0 | 0.01 | 0.23 | 0.08 | 1 | 1001.6 |
| 20260903232024 | 58 | 310 | 1.0 | 10.0 | 0.02 | 0.23 | 0.08 | 1 | 1001.7 |
| 20260903231502 | 58 | 310 | 1.0 | 10.0 | 0.03 | 0.23 | 0.08 | 1 | 1001.8 |
| 20260903231002 | 58 | 304 | 1.0 | 8.0 | 0.06 | 0.23 | 0.08 | 1 | 1001.8 |
| 20260903230503 | 58 | 318 | 1.0 | 8.0 | 0.07 | 0.23 | 0.08 | 1 | 1001.7 |
| 20260903230003 | 58 | 323 | 0.0 | 7.0 | 0.08 | 0.23 | 0.08 | 1 | 1001.7 |
| 20260903225502 | 58 | 337 | 0.0 | 7.0 | 0.09 | 0.23 | 0.08 | 1 | 1001.7 |
| 20260903225003 | 58 | 308 | 0.0 | 4.0 | 0.10 | 0.23 | 0.08 | 1 | 1001.5 |
| 20260903224524 | 58 | 295 | 0.0 | 4.0 | 0.13 | 0.22 | 0.07 | 1 | 1001.6 |
| 20260903224003 | 58 | 291 | 0.0 | 4.0 | 0.17 | 0.22 | 0.07 | 1 | 1001.6 |
| 20260903223524 | 58 | 130 | 0.0 | 6.0 | 0.18 | 0.22 | 0.07 | 1 | 1001.7 |
| 20260903223003 | 58 | 128 | 0.0 | 6.0 | 0.20 | 0.22 | 0.07 | 1 | 1001.7 |
| 20260903222503 | 58 | 242 | 0.0 | 1.0 | 0.20 | 0.22 | 0.07 | 1 | 1001.8 |
| 20260903222003 | 58 | 261 | 0.0 | 1.0 | 0.20 | 0.21 | 0.06 | 1 | 1001.9 |
| 20260903221503 | 58 | 0 | 0.0 | 0.0 | 0.18 | 0.20 | 0.05 | 1 | 1001.9 |
| 20260903221002 | 58 | 0 | 0.0 | 0.0 | 0.16 | 0.17 | 0.02 | 1 | 1001.9 |
| 20260903220502 | 58 | 0 | 0.0 | 0.0 | 0.14 | 0.16 | 0.01 | 1 | 1001.9 |
| 20260903220005 | 58 | 127 | 0.0 | 1.0 | 0.13 | 0.15 | 0.00 | 1 | 1001.9 |
| 20260903215503 | 58 | 127 | 0.0 | 1.0 | 0.13 | 0.14 | 0.14 | 1 | 1002.0 |
| 20260903215023 | 58 | 0 | 0.0 | 0.0 | 0.11 | 0.13 | 0.13 | 1 | 1001.9 |
| 20260903214524 | 58 | 0 | 0.0 | 0.0 | 0.08 | 0.09 | 0.10 | 1 | 1001.9 |
| 20260903214003 | 58 | 0 | 0.0 | 0.0 | 0.04 | 0.06 | 0.06 | 1 | 1002.0 |
| 20260903213503 | 58 | 0 | 0.0 | 0.0 | 0.02 | 0.04 | 0.04 | 1 | 1002.0 |
| 20260903213003 | 58 | 0 | 0.0 | 0.0 | 0.01 | 0.02 | 0.02 | 1 | 1002.0 |
| 20260903212503 | 57 | 0 | 0.0 | 0.0 | 0.00 | 0.02 | 0.02 | 1 | 1002.0 |
| 20260903212003 | 57 | 0 | 0.0 | 0.0 | 0.00 | 0.02 | 0.02 | 1 | 1002.1 |
| 20260903211503 | 57 | 0 | 0.0 | 0.0 | 0.00 | 0.02 | 0.02 | 1 | 1002.1 |
| 20260903211024 | 57 | 0 | 0.0 | 0.0 | 0.00 | 0.02 | 0.02 | 1 | 1002.2 |
| 20260903210502 | 57 | 0 | 0.0 | 0.0 | 0.00 | 0.02 | 0.02 | 1 | 1002.3 |
| 20260903210003 | 57 | 127 | 0.0 | 1.0 | 0.00 | 0.02 | 0.02 | 1 | 1002.4 |
| 20260903205503 | 57 | 127 | 0.0 | 1.0 | 0.00 | 0.02 | 0.02 | 1 | 1002.4 |
| 20260903205003 | 57 | 0 | 0.0 | 0.0 | 0.00 | 0.02 | 0.02 | 1 | 1002.4 |
| 20260903204524 | 57 | 0 | 0.0 | 0.0 | 0.00 | 0.02 | 0.02 | 1 | 1002.4 |
| 20260903204003 | 57 | 0 | 0.0 | 0.0 | 0.00 | 0.02 | 0.02 | 1 | 1002.4 |
| 20260903203503 | 58 | 0 | 0.0 | 0.0 | 0.00 | 0.02 | 0.02 | 1 | 1002.4 |
| 20260903203003 | 57 | 0 | 0.0 | 0.0 | 0.00 | 0.02 | 0.02 | 1 | 1002.6 |
| 20260903202503 | 57 | 0 | 0.0 | 0.0 | 0.00 | 0.02 | 0.02 | 1 | 1002.7 |
| 20260903202024 | 57 | 0 | 0.0 | 0.0 | 0.00 | 0.02 | 0.02 | 1 | 1002.7 |
| 20260903201503 | 58 | 127 | 0.0 | 1.0 | 0.01 | 0.02 | 0.02 | 1 | 1002.7 |
| 20260903201002 | 58 | 127 | 0.0 | 1.0 | 0.01 | 0.02 | 0.02 | 1 | 1002.7 |
| 20260903200503 | 58 | 0 | 0.0 | 0.0 | 0.01 | 0.02 | 0.02 | 1 | 1002.7 |
| 20260903200003 | 58 | 0 | 0.0 | 0.0 | 0.01 | 0.02 | 0.02 | 1 | 1002.7 |
| 20260903195503 | 58 | 0 | 0.0 | 0.0 | 0.01 | 0.02 | 0.02 | 1 | 1002.7 |
| 20260903195003 | 58 | 0 | 0.0 | 0.0 | 0.01 | 0.02 | 0.02 | 1 | 1002.7 |
| 20260903194524 | 58 | 0 | 0.0 | 0.0 | 0.01 | 0.02 | 0.02 | 1 | 1002.8 |
| 20260903194024 | 58 | 0 | 0.0 | 0.0 | 0.01 | 0.02 | 0.02 | 1 | 1002.7 |
| 20260903193503 | 58 | 0 | 0.0 | 0.0 | 0.01 | 0.02 | 0.02 | 1 | 1002.8 |
| 20260903193003 | 58 | 0 | 0.0 | 0.0 | 0.01 | 0.02 | 0.02 | 1 | 1002.9 |
| 20260903192503 | 58 | 0 | 0.0 | 0.0 | 0.01 | 0.02 | 0.02 | 1 | 1002.9 |
| 20260903192003 | 58 | 0 | 0.0 | 0.0 | 0.01 | 0.02 | 0.02 | 1 | 1003.0 |
| 20260903191503 | 58 | 0 | 0.0 | 0.0 | 0.00 | 0.01 | 0.01 | 1 | 1003.0 |
| 20260903191002 | 58 | 0 | 0.0 | 0.0 | 0.00 | 0.01 | 0.01 | 1 | 1003.1 |
| 20260903190503 | 58 | 0 | 0.0 | 0.0 | 0.00 | 0.01 | 0.01 | 1 | 1003.1 |
| 20260903190003 | 58 | 0 | 0.0 | 0.0 | 0.00 | 0.01 | 0.01 | 1 | 1003.1 |
| 20260903185503 | 58 | 0 | 0.0 | 0.0 | 0.00 | 0.01 | 0.01 | 1 | 1003.1 |
| 20260903185003 | 58 | 0 | 0.0 | 0.0 | 0.00 | 0.01 | 0.01 | 1 | 1003.2 |
| 20260903184503 | 58 | 0 | 0.0 | 0.0 | 0.00 | 0.01 | 0.01 | 1 | 1003.2 |
| 20260903184003 | 58 | 0 | 0.0 | 0.0 | 0.00 | 0.01 | 0.01 | 1 | 1003.1 |
| 20260903183503 | 58 | 0 | 0.0 | 0.0 | 0.00 | 0.01 | 0.01 | 1 | 1003.2 |
| 20260903183003 | 58 | 0 | 0.0 | 0.0 | 0.00 | 0.01 | 0.01 | 1 | 1003.2 |
| 20260903182503 | 58 | 0 | 0.0 | 0.0 | 0.00 | 0.01 | 0.01 | 1 | 1003.2 |
| 20260903182003 | 58 | 0 | 0.0 | 0.0 | 0.00 | 0.01 | 0.01 | 1 | 1003.3 |
| 20260903181503 | 58 | 0 | 0.0 | 0.0 | 0.00 | 0.01 | 0.01 | 1 | 1003.3 |
| 20260903181002 | 58 | 0 | 0.0 | 0.0 | 0.00 | 0.01 | 0.01 | 1 | 1003.3 |
| 20260903180503 | 58 | 0 | 0.0 | 0.0 | 0.00 | 0.01 | 0.01 | 1 | 1003.4 |
| 20260903180024 | 58 | 0 | 0.0 | 0.0 | 0.00 | 0.01 | 0.01 | 1 | 1003.4 |
| 20260903175524 | 58 | 0 | 0.0 | 0.0 | 0.00 | 0.01 | 0.01 | 1 | 1003.4 |
| 20260903175003 | 58 | 0 | 0.0 | 0.0 | 0.00 | 0.01 | 0.01 | 1 | 1003.3 |
| 20260903174524 | 58 | 0 | 0.0 | 0.0 | 0.00 | 0.01 | 0.01 | 1 | 1003.4 |
| 20260903174024 | 58 | 0 | 0.0 | 0.0 | 0.00 | 0.01 | 0.01 | 1 | 1003.4 |
| 20260903173503 | 58 | 0 | 0.0 | 0.0 | 0.00 | 0.01 | 0.01 | 1 | 1003.5 |
| 20260903173003 | 58 | 0 | 0.0 | 0.0 | 0.00 | 0.01 | 0.01 | 1 | 1003.4 |
| 20260903172503 | 58 | 0 | 0.0 | 0.0 | 0.00 | 0.01 | 0.01 | 1 | 1003.5 |
| 20260903172003 | 58 | 0 | 0.0 | 0.0 | 0.00 | 0.01 | 0.01 | 1 | 1003.5 |
| 20260903171503 | 58 | 0 | 0.0 | 0.0 | 0.00 | 0.01 | 0.01 | 1 | 1003.4 |